Torna al catalogo

GORIZONT 18

AttivoComunicazioniGEO
NORAD 20107·PAYLOAD·🇷🇺 Russia

Lanciato Jul 5, 1989 da Baikonur Cosmodrome

Loading…

TLE

AggiornatoSource: Space-Track

Epoca: Sep 14, 2026, 10:57 UTC

1 20107U 89052A   26257.45654963  .00000057  00000-0  00000-0 0  9990
2 20107  12.2971 333.8784 0036416 348.6556  49.8556  0.99400850135301

Traccia GORIZONT 18 in tempo reale con AllMySat

Download on the App Store